Date String (YYYY-MM-DD hh:mm:ss) UTC,Instrument flags,Ambient pressure (hPa),Sample flow (lpm),Bypass flow (lpm),Sample temperature (°C),Ambient temperature (°C),ASC tube jacket temperature (°C),LED temperature (°C),Box temperature (°C),Sample RH (%),Span deviation,Mass concentration (μg/m³),Mass concentration (μg/m³),Mass concentration (μg/m³)
DateTimeUTC,F1_M11,P_M11,Q1_M11,Q2_M11,T1_M11,T2_M11,T3_M11,T4_M11,T5_M11,U1_M11,ZSPAN_M11,X0_M11,X2_M11,X1_M11
2021-08-31 14:00:00,,0824.0,5.01,0.00,30.0,29.1,00.0,39.0,31.8,10.9,0001.8,0024.31,0019.06,0018.35
2021-08-31 14:01:00,,0824.0,4.99,0.00,30.1,29.2,00.0,39.0,31.9,11.3,0001.7,0024.41,0019.02,0018.29
2021-08-31 14:02:00,,0824.0,5.02,0.00,30.1,29.2,00.0,39.1,31.9,14.7,0001.8,0024.82,0019.03,0018.27
2021-08-31 14:03:00,,0824.0,4.99,0.00,30.1,29.3,00.0,39.1,31.9,17.6,0001.9,0024.85,0019.10,0018.33
2021-08-31 14:04:00,,0824.0,5.00,0.00,30.1,29.3,00.0,39.1,32.0,14.6,0002.3,0025.75,0019.19,0018.39
2021-08-31 14:05:00,,0824.0,5.00,0.00,30.1,28.4,00.0,39.1,31.7,13.8,0002.5,0026.81,0019.24,0018.42
2021-08-31 14:06:00,,0824.0,5.00,0.00,30.0,26.6,00.0,39.1,31.2,13.1,0002.7,0028.01,0019.20,0018.37
2021-08-31 14:07:00,,0824.0,5.00,0.00,29.9,26.4,00.0,39.0,31.2,13.5,0002.6,0027.88,0019.13,0018.33
2021-08-31 14:08:00,,0823.9,4.99,0.00,29.8,26.8,00.0,39.0,31.3,13.8,0002.6,0027.84,0019.12,0018.32
2021-08-31 14:09:00,,0824.0,5.00,0.00,29.8,27.2,00.0,39.0,31.3,14.6,0002.5,0028.55,0019.17,0018.36
2021-08-31 14:10:00,,0823.9,5.01,0.00,29.7,27.6,00.0,39.0,31.3,15.7,0002.7,0028.65,0019.24,0018.39
2021-08-31 14:11:00,,0824.0,4.99,0.00,29.8,27.9,00.0,38.9,31.4,16.2,0002.7,0028.41,0019.32,0018.45
2021-08-31 14:12:00,,0824.0,5.01,0.00,29.8,28.1,00.0,38.9,31.5,14.6,0003.0,0028.44,0019.34,0018.48
2021-08-31 14:13:00,,0824.0,5.00,0.00,29.8,28.3,00.0,38.9,31.5,15.2,0002.9,0028.01,0019.32,0018.48
2021-08-31 14:14:00,,0824.0,5.01,0.00,29.8,28.5,00.0,38.9,31.6,13.4,0002.9,0027.95,0019.31,0018.49
2021-08-31 14:15:00,,0824.0,5.00,0.00,29.9,28.6,00.0,38.9,31.6,12.6,0002.9,0027.17,0019.21,0018.43
2021-08-31 14:16:00,,0824.0,5.00,0.00,29.9,28.8,00.0,38.9,31.7,12.9,0002.6,0026.42,0019.11,0018.35
2021-08-31 14:17:00,,0824.0,5.00,0.00,29.9,28.9,00.0,39.0,31.7,12.3,0002.4,0025.45,0019.13,0018.38
2021-08-31 14:18:00,,0824.0,4.99,0.00,29.9,28.9,00.0,39.0,31.7,13.0,0002.5,0025.40,0019.23,0018.46
2021-08-31 14:19:00,,0824.0,5.01,0.00,30.0,29.0,00.0,39.0,31.8,13.5,0002.6,0025.99,0019.25,0018.51
2021-08-31 14:20:00,,0824.0,4.99,0.00,30.0,29.1,00.0,39.0,31.8,13.6,0002.4,0025.94,0019.26,0018.52
2021-08-31 14:21:00,,0824.0,5.00,0.00,30.1,29.2,00.0,39.0,31.9,14.3,0002.1,0025.91,0019.29,0018.52
2021-08-31 14:22:00,,0824.0,5.02,0.00,30.1,29.2,00.0,39.0,31.9,14.6,0002.0,0025.86,0019.27,0018.51
2021-08-31 14:23:00,,0824.0,4.99,0.00,30.1,29.2,00.0,39.1,31.9,16.0,0001.6,0026.06,0019.23,0018.46
2021-08-31 14:24:00,,0824.0,5.00,0.00,30.1,27.9,00.0,39.1,31.6,15.4,0001.6,0026.19,0019.22,0018.45
2021-08-31 14:25:00,,0824.0,5.00,0.00,29.9,26.5,00.0,39.0,31.3,16.1,0001.3,0026.43,0019.19,0018.42
2021-08-31 14:26:00,,0823.9,4.99,0.00,29.9,26.7,00.0,39.0,31.3,16.4,0001.1,0026.28,0019.21,0018.42
2021-08-31 14:27:00,,0824.0,5.00,0.00,29.8,27.1,00.0,39.0,31.3,16.4,0001.5,0025.92,0019.24,0018.44
2021-08-31 14:28:00,,0824.0,5.00,0.00,29.8,27.5,00.0,39.0,31.4,15.3,0001.7,0025.64,0019.15,0018.36
2021-08-31 14:29:00,,0823.9,5.01,0.00,29.8,27.8,00.0,38.9,31.4,15.9,0001.8,0025.50,0019.11,0018.30
2021-08-31 14:30:00,,0824.0,5.00,0.00,29.8,28.1,00.0,38.9,31.5,15.6,0001.8,0025.75,0019.15,0018.25
2021-08-31 14:31:00,,0824.0,5.00,0.00,29.8,28.3,00.0,38.9,31.5,16.5,0001.9,0025.75,0019.17,0018.20
2021-08-31 14:32:00,,0824.0,5.01,0.00,29.8,28.5,00.0,38.9,31.6,16.3,0002.2,0026.40,0019.15,0018.18
2021-08-31 14:33:00,,0824.0,4.99,0.00,29.9,28.6,00.0,38.9,31.6,16.4,0002.2,0026.58,0019.18,0018.15
2021-08-31 14:34:00,,0824.0,5.00,0.00,29.9,28.8,00.0,38.9,31.7,16.8,0002.4,0026.47,0019.14,0018.09
2021-08-31 14:35:00,,0824.0,5.00,0.00,29.9,28.9,00.0,39.0,31.7,15.7,0002.5,0026.19,0018.99,0017.94
2021-08-31 14:36:00,,0824.0,4.99,0.00,30.0,29.0,00.0,39.0,31.8,14.6,0002.6,0025.75,0018.78,0017.74
2021-08-31 14:37:00,,0824.1,5.00,0.00,30.0,29.1,00.0,39.0,31.8,14.5,0002.8,0025.67,0018.57,0017.53
2021-08-31 14:38:00,,0824.0,5.01,0.00,30.0,29.1,00.0,39.0,31.9,15.4,0002.6,0025.71,0018.47,0017.44
2021-08-31 14:39:00,,0824.0,4.99,0.00,30.1,29.1,00.0,39.0,31.9,14.7,0002.6,0025.72,0018.42,0017.39
2021-08-31 14:40:00,,0824.0,5.00,0.00,30.1,27.8,00.0,39.0,31.6,14.8,0002.5,0025.69,0018.34,0017.31
2021-08-31 14:41:00,,0824.0,5.00,0.00,29.9,26.5,00.0,39.0,31.2,16.3,0002.6,0024.98,0018.24,0017.29
2021-08-31 14:42:00,,0824.0,5.00,0.00,29.8,26.7,00.0,39.0,31.2,15.4,0002.7,0024.30,0018.12,0017.25
2021-08-31 14:43:00,,0823.9,5.00,0.00,29.8,27.1,00.0,38.9,31.3,16.1,0002.7,0023.69,0017.98,0017.15
2021-08-31 14:44:00,,0823.9,5.01,0.00,29.7,27.5,00.0,38.9,31.3,16.4,0002.5,0024.39,0017.86,0017.08
2021-08-31 14:45:00,,0823.9,4.99,0.00,29.8,27.9,00.0,38.9,31.4,16.4,0002.4,0024.36,0017.83,0017.08
2021-08-31 14:46:00,,0824.0,5.01,0.00,29.8,28.1,00.0,38.9,31.5,16.1,0002.3,0024.42,0017.85,0017.09
2021-08-31 14:47:00,,0824.0,4.98,0.00,29.8,28.4,00.0,38.9,31.5,16.4,0002.4,0025.01,0017.97,0017.15
2021-08-31 14:48:00,,0824.0,5.01,0.00,29.8,28.6,00.0,38.9,31.6,16.7,0002.4,0025.22,0018.08,0017.24
2021-08-31 14:49:00,,0824.0,5.01,0.00,29.9,28.7,00.0,38.9,31.7,18.5,0002.1,0025.14,0018.11,0017.27
2021-08-31 14:50:00,,0824.0,5.00,0.00,29.9,28.8,00.0,38.9,31.7,22.0,0002.2,0025.44,0018.21,0017.38
2021-08-31 14:51:00,,0824.0,4.99,0.00,29.9,28.9,00.0,38.9,31.8,22.4,0002.2,0025.84,0018.32,0017.51
2021-08-31 14:52:00,,0824.0,5.00,0.00,30.0,29.0,00.0,39.0,31.9,21.0,0002.2,0026.28,0018.42,0017.57
2021-08-31 14:53:00,,0824.0,5.00,0.00,30.0,29.1,00.0,39.0,31.9,19.6,0002.1,0026.39,0018.51,0017.66
2021-08-31 14:54:00,,0824.0,4.99,0.00,30.0,28.5,00.0,39.0,31.7,20.0,0002.1,0026.42,0018.64,0017.78
2021-08-31 14:55:00,,0824.0,5.01,0.00,29.9,26.8,00.0,39.0,31.3,21.0,0002.3,0025.95,0018.73,0017.84
2021-08-31 14:56:00,,0824.0,5.01,0.00,29.8,26.6,00.0,39.0,31.2,21.1,0002.3,0026.14,0018.77,0017.91
2021-08-31 14:57:00,,0824.0,4.99,0.00,29.8,27.0,00.0,38.9,31.3,21.8,0002.4,0026.29,0018.90,0017.99
2021-08-31 14:58:00,,0824.0,4.99,0.00,29.7,27.4,00.0,38.9,31.3,21.3,0002.4,0025.88,0018.92,0018.04
2021-08-31 14:59:00,,0824.0,5.00,0.00,29.7,27.7,00.0,38.9,31.4,22.7,0002.5,0025.85,0018.96,0018.07
